Orbital Elements at Epoch 2459000.5 (2020-May-31.0) TDB
Reference: JPL 15 (heliocentric ecliptic J2000)
Element | Value | Uncertainty (1-sigma) | Units |
e | .1724310539531292 | 4.2209e-08 | |
a | 2.278698260374441 | 1.3485e-08 | au |
q | 1.885779917696914 | 9.9455e-08 | au |
i | 2.259670389601993 | 5.4754e-06 | deg |
node | 245.2994478328701 | 0.00012426 | deg |
peri | 80.78209966421126 | 0.00012603 | deg |
M | 273.7195912232149 | 2.425e-05 | deg |
tp | 2459301.619132994340 (2021-Mar-28.11913299) | 8.6252e-05 | TDB |
period | 1256.402112771744 3.44 | 1.1153e-05 3.054e-08 | d yr |
n | .2865324694542302 | 2.5436e-09 | deg/d |
Q | 2.671616603051968 | 1.5811e-08 | au |
|
| | Orbit Determination Parameters
Additional Information
|